DW7229 Weather Reports


Display with metric or nautical units.
time (UTC)temp
F
wind
direction
speed
MPH
gust
MPH
rain 1hr
in
rain 24hr
in
rain mn
in
humidity
%
barometer
mb
20260504023543 37 0.0 0.0 0.00 0.00 0.00 64 1009.1
20260504022520 38 0.0 0.0 0.00 0.00 0.00 64 1009.0
20260504021517 38 0.0 0.0 0.00 0.00 0.00 63 1009.0
20260504020535 39 0.0 0.0 0.00 0.00 0.00 61 1008.9
20260504015524 39 0.0 0.0 0.00 0.00 0.00 61 1008.9
20260504014607 40 0.0 0.0 0.00 0.00 0.00 60 1008.7
20260504013530 40 0.0 0.0 0.00 0.00 0.00 59 1008.7
20260504012516 41 0.0 0.0 0.00 0.00 0.00 55 1008.6
20260504011519 42 0.0 0.0 0.00 0.00 0.00 55 1008.5
20260504010522 43 0.0 0.0 0.00 0.00 0.00 52 1008.4
20260504005606 44 0.0 0.0 0.00 0.00 0.00 50 1008.3
20260504004549 45 0.0 0.0 0.00 0.00 0.00 49 1008.1
20260504003532 46 0.0 0.0 0.00 0.00 0.00 49 1008.0
20260504002517 47 0.0 0.0 0.00 0.00 0.00 45 1007.9
20260504001521 48 0.0 0.0 0.00 0.00 0.00 42 1007.7
20260504000524 48 0.0 0.0 0.00 0.00 0.00 42 1007.6
20260503235527 49 281 0.0 3.0 0.00 0.00 0.00 40 1007.5
20260503234551 49 225 0.0 3.0 0.00 0.00 0.00 39 1007.4
20260503233516 50 320 1.0 3.0 0.00 0.00 0.00 38 1007.2
20260503232519 50 9 2.0 5.0 0.00 0.00 0.00 38 1007.1
20260503231523 51 218 1.0 5.0 0.00 0.00 0.00 37 1006.9
20260503230546 51 267 5.0 11.0 0.00 0.00 0.00 36 1006.8
20260503225523 52 205 2.0 10.0 0.00 0.00 0.00 36 1006.7
20260503224520 53 117 2.0 6.0 0.00 0.00 0.00 35 1006.6
20260503223517 53 36 2.0 6.0 0.00 0.00 0.00 36 1006.5
20260503222515 52 0.0 0.0 0.00 0.00 0.00 36 1006.4
20260503221524 52 76 1.0 4.0 0.00 0.00 0.00 36 1006.3
20260503220528 52 57 3.0 5.0 0.00 0.00 0.00 35 1006.3
20260503215531 52 286 4.0 8.0 0.00 0.00 0.00 35 1006.2
20260503213519 53 226 3.0 7.0 0.00 0.00 0.00 34 1006.1
20260503212542 53 260 4.0 9.0 0.00 0.00 0.00 34 1005.7
20260503211526 53 164 2.0 6.0 0.00 0.00 0.00 34 1005.6
20260503210529 54 31 4.0 7.0 0.00 0.00 0.00 34 1005.5
20260503205532 53 325 4.0 7.0 0.00 0.00 0.00 34 1005.3
20260503204517 53 21 3.0 9.0 0.00 0.00 0.00 35 1005.4
20260503203521 53 333 1.0 5.0 0.00 0.00 0.00 35 1005.3
20260503202524 53 217 4.0 6.0 0.00 0.00 0.00 36 1005.1
20260503201528 53 269 3.0 7.0 0.00 0.00 0.00 36 1005.0
20260503200531 53 14 2.0 5.0 0.00 0.00 0.00 37 1005.0
20260503195516 53 15 3.0 6.0 0.00 0.00 0.00 38 1005.1
20260503194519 53 269 4.0 6.0 0.00 0.00 0.00 38 1005.2
20260503193523 53 250 3.0 8.0 0.00 0.00 0.00 39 1005.2
20260503192526 53 301 5.0 9.0 0.00 0.00 0.00 39 1005.1
20260503191523 54 4 4.0 8.0 0.00 0.00 0.00 39 1005.1
20260503190520 54 25 3.0 8.0 0.00 0.00 0.00 39 1005.1
20260503185518 54 82 3.0 4.0 0.00 0.00 0.00 38 1005.4
20260503184515 54 338 1.0 6.0 0.00 0.00 0.00 39 1005.4
20260503183544 53 15 3.0 9.0 0.00 0.00 0.00 39 1005.6
20260503182527 52 23 2.0 4.0 0.00 0.00 0.00 41 1005.6
20260503181531 51 356 3.0 5.0 0.00 0.00 0.00 42 1005.7
20260503180616 51 60 5.0 9.0 0.00 0.00 0.00 46 1005.6
20260503175540 51 310 5.0 7.0 0.00 0.00 0.00 46 1005.4
20260503174523 53 249 4.0 12.0 0.00 0.00 0.00 46 1005.3
20260503173526 51 292 4.0 7.0 0.00 0.00 0.00 46 1005.2
20260503172610 51 269 4.0 10.0 0.00 0.00 0.00 48 1005.2
20260503171515 51 355 4.0 6.0 0.00 0.00 0.00 47 1005.2
20260503170518 51 340 2.0 5.0 0.00 0.00 0.00 49 1005.2
20260503150515 46 279 2.0 6.0 0.00 0.00 0.00 71 1005.6
20260503130524 46 358 2.0 4.0 0.00 0.00 0.00 70 1006.0
20260503110528 42 0.0 0.0 0.00 0.00 0.00 81 1006.4
20260503081523 42 0.0 0.0 0.00 0.00 0.00 81 1007.5
20260503080515 42 0.0 0.0 0.00 0.00 0.00 81 1007.5
20260503072528 42 0.0 0.0 0.00 0.00 0.00 81 1007.8
20260503071551 42 0.0 0.0 0.00 0.00 0.00 81 1007.9
20260503070516 42 0.0 0.0 0.00 0.00 0.00 81 1008.1
20260503054525 44 0.0 0.0 0.00 0.00 0.00 81 1009.0
20260503053529 44 0.0 0.0 0.00 0.00 0.00 81 1009.1
20260503052531 44 0.0 0.0 0.00 0.00 0.00 81 1009.3
20260503051517 45 0.0 0.0 0.00 0.00 0.00 81 1009.3
20260503050520 45 0.0 0.0 0.00 0.00 0.00 81 1009.3
20260503045523 45 0.0 0.0 0.00 0.00 0.00 81 1009.6
20260503044527 46 0.0 0.0 0.00 0.00 0.00 81 1009.7
20260503043524 46 0.0 2.0 0.00 0.00 0.00 81 1009.9
20260503042515 47 0.0 0.0 0.00 0.00 0.00 81 1010.0
20260503041518 47 0.0 0.0 0.00 0.00 0.00 81 1010.0
20260503040516 47 0.0 0.0 0.00 0.00 0.00 81 1010.1
20260503035525 47 0.0 0.0 0.00 0.00 0.00 81 1010.0
20260503034528 47 0.0 0.0 0.00 0.00 0.00 81 1010.1
20260503033531 47 0.0 0.0 0.00 0.00 0.00 81 1010.1
20260503032517 47 0.0 0.0 0.00 0.00 0.00 81 1010.0
20260503031520 47 0.0 0.0 0.00 0.00 0.00 81 1010.0
20260503030523 47 0.0 0.0 0.00 0.00 0.00 81 1010.1
20260503025527 47 0.0 0.0 0.00 0.00 0.00 81 1010.1
20260503024530 47 0.0 0.0 0.00 0.00 0.00 81 1010.2